This demonstration page uses our WeatherBlox Daily Observations layout. Learn more.

Left ArrowRight Arrow

53.62937, 11.41316

Hourly Observations for May 23, 2021

Temp ( °F °C ) Dew Point ( °F °C ) Humidity (%) Winds ( mph kmh ) Pressure ( in mb ) Visibility ( mi km ) Precip ( " mm )
7:50 am 07:50 Partly Cloudy 50 10 41 5 71 71 SW 14 22 29.77 1008 30 48 N/A
8:20 am 08:20 Mostly Cloudy 50 10 41 5 71 71 SW 14 22 29.77 1008 30 48 N/A
8:50 am 08:50 Partly Cloudy 50 10 41 5 71 71 SW 14 22 29.77 1008 30 48 N/A
9:20 am 09:20 Partly Cloudy 52 11 41 5 67 67 SSW 16 26 29.80 1009 30 48 N/A
9:50 am 09:50 Mostly Cloudy 52 11 39 4 62 62 SW 15 24 29.80 1009 30 48 N/A
10:20 am 10:20 Partly Cloudy 54 12 41 5 63 63 SSW 16 26 29.80 1009 30 48 N/A
10:50 am 10:50 Partly Cloudy 52 11 39 4 62 62 SW 15 24 29.83 1010 30 48 N/A
11:20 am 11:20 Partly Cloudy 55 13 41 5 59 59 SW 14 22 29.83 1010 30 48 N/A
11:50 am 11:50 Partly Cloudy 55 13 41 5 59 59 SW 12 19 29.83 1010 30 48 N/A
12:20 pm 12:20 Partly Cloudy 54 12 41 5 63 63 SW 8 13 29.86 1011 30 48 N/A
12:50 pm 12:50 Partly Cloudy 57 14 43 6 59 59 SW 10 17 29.86 1011 30 48 N/A
1:20 pm 13:20 Partly Cloudy 57 14 41 5 55 55 SW 15 24 29.86 1011 30 48 N/A
1:50 pm 13:50 Partly Cloudy 55 13 39 4 55 55 SW 14 22 29.86 1011 30 48 N/A
2:20 pm 14:20 Mostly Sunny 55 13 39 4 55 55 SW 13 20 29.86 1011 30 48 N/A
2:50 pm 14:50 Mostly Sunny 55 13 41 5 59 59 SW 10 17 29.88 1012 30 48 N/A
3:20 pm 15:20 Partly Cloudy 57 14 41 5 55 55 SW 9 15 29.88 1012 30 48 N/A
3:50 pm 15:50 Partly Cloudy 59 15 43 6 55 55 SW 9 15 29.88 1012 30 48 N/A
4:20 pm 16:20 Mostly Cloudy 59 15 41 5 51 51 SSW 13 20 29.88 1012 30 48 N/A
4:50 pm 16:50 Mostly Cloudy 57 14 41 5 55 55 SSW 13 20 29.88 1012 30 48 N/A
5:20 pm 17:20 Mostly Sunny 57 14 41 5 55 55 SSW 10 17 29.88 1012 7 11 N/A
5:50 pm 17:50 Partly Cloudy 55 13 45 7 67 67 S 14 22 29.91 1013 30 48 N/A
6:20 pm 18:20 Partly Cloudy with Showers Nearby 55 13 46 8 72 72 S 6 9 29.88 1012 30 48 N/A
6:50 pm 18:50 Partly Cloudy with Showers Nearby 55 13 46 8 72 72 S 6 9 29.91 1013 30 48 N/A
7:20 pm 19:20 Partly Cloudy with Showers Nearby 52 11 45 7 77 77 SW 13 20 29.91 1013 30 48 N/A
7:50 pm 19:50 Partly Cloudy with Showers Nearby 52 11 46 8 82 82 SW 9 15 29.91 1013 30 48 N/A
8:20 pm 20:20 Partly Cloudy with Showers Nearby 52 11 45 7 77 77 SSW 10 17 29.94 1014 30 48 N/A
8:50 pm 20:50 Mostly Sunny 52 11 45 7 77 77 S 9 15 29.94 1014 7 11 N/A
9:20 pm 21:20 Mostly Sunny 50 10 45 7 82 82 SSW 8 13 29.94 1014 7 11 N/A
9:50 pm 21:50 Mostly Clear 50 10 45 7 82 82 SSW 7 11 29.94 1014 7 11 N/A

Powered by AerisWeather